W8CEN Weather Reports


time (UTC)temp
F
wind
direction
speed
knots
gust
knots
rain 1hr
in
rain 24hr
in
rain mn
in
humidity
%
barometer
mb
20260503010705 44 350 0.0 0.0 0.00 0.00 0.00 64 995.3
20260503010202 44 350 0.0 0.0 0.00 0.00 0.00 63 995.5
20260503005659 44 350 0.0 0.0 0.00 0.00 0.00 62 995.3
20260503005156 44 350 0.0 0.0 0.00 0.00 0.00 60 995.4
20260503004652 45 350 0.0 0.0 0.00 0.00 0.00 60 995.3
20260503004151 45 350 0.0 0.0 0.00 0.00 0.00 58 995.2
20260503003648 45 350 0.0 0.0 0.00 0.00 0.00 58 995.4
20260503003145 45 343 0.0 0.0 0.00 0.00 0.00 57 995.4
20260503002641 46 342 0.0 0.0 0.00 0.00 0.00 57 995.4
20260503002138 46 350 0.0 0.0 0.00 0.00 0.00 55 995.3
20260503001634 46 336 0.0 0.0 0.00 0.00 0.00 56 995.4
20260503001131 46 336 0.0 0.0 0.00 0.00 0.00 55 995.4
20260503000629 46 320 0.0 0.0 0.00 0.00 0.00 51 995.4
20260503000126 47 322 0.0 0.0 0.00 0.00 0.00 53 995.2
20260502235622 47 331 0.0 0.0 0.00 0.00 0.00 51 995.0
20260502235121 47 333 0.0 0.0 0.00 0.00 0.00 50 995.4
20260502234616 47 327 0.0 0.0 0.00 0.00 0.00 52 995.3
20260502234114 48 330 0.0 0.0 0.00 0.00 0.00 49 995.3
20260502233609 48 311 0.0 0.0 0.00 0.00 0.00 49 995.1
20260502233107 48 305 0.0 0.0 0.00 0.00 0.00 48 995.1
20260502232602 48 283 0.0 0.0 0.00 0.00 0.00 48 995.2
20260502232100 48 320 0.0 0.0 0.00 0.00 0.00 48 995.2
20260502231557 48 317 0.9 0.9 0.00 0.00 0.00 46 995.2
20260502231055 48 316 0.0 0.0 0.00 0.00 0.00 47 995.3
20260502230553 48 283 0.0 0.0 0.00 0.00 0.00 47 995.2
20260502230051 49 295 0.0 0.9 0.00 0.00 0.00 43 995.3
20260502225546 49 357 0.0 0.0 0.00 0.00 0.00 47 995.4
20260502225043 49 335 0.0 0.9 0.00 0.00 0.00 44 995.3
20260502224539 49 350 0.0 0.0 0.00 0.00 0.00 45 995.4
20260502224037 49 13 0.0 0.0 0.00 0.00 0.00 46 995.4
20260502223535 49 319 0.0 0.9 0.00 0.00 0.00 45 995.3
20260502223033 49 286 0.9 0.9 0.00 0.00 0.00 43 995.2
20260502222529 49 229 0.9 1.7 0.00 0.00 0.00 45 995.3
20260502222026 49 345 0.0 0.0 0.00 0.00 0.00 48 995.2
20260502221521 49 240 1.7 2.6 0.00 0.00 0.00 45 995.2
20260502221019 49 315 0.9 0.9 0.00 0.00 0.00 44 995.4
20260502220514 49 333 0.0 0.0 0.00 0.00 0.00 46 995.5
20260502220012 49 336 0.0 0.0 0.00 0.00 0.00 46 995.4
20260502215509 49 355 0.9 0.9 0.00 0.00 0.00 43 995.3
20260502215005 50 358 0.0 0.0 0.00 0.00 0.00 47 995.5
20260502214503 50 329 0.0 0.9 0.00 0.00 0.00 44 995.5
20260502214000 49 359 0.0 0.0 0.00 0.00 0.00 46 995.3
20260502213456 49 84 0.9 0.9 0.00 0.00 0.00 44 995.3
20260502212955 49 33 0.9 0.9 0.00 0.00 0.00 45 995.4
20260502212453 49 357 0.0 0.0 0.00 0.00 0.00 46 995.1
20260502211950 49 0 0.0 0.0 0.00 0.00 0.00 48 995.4
20260502211446 49 354 0.0 0.0 0.00 0.00 0.00 44 995.2
20260502210944 49 249 0.9 1.7 0.00 0.00 0.00 41 995.3
20260502210440 50 257 1.7 1.7 0.00 0.00 0.00 42 995.4
20260502205937 50 58 0.0 0.0 0.00 0.00 0.00 45 995.3
20260502205433 50 265 0.9 0.9 0.00 0.00 0.00 42 995.5
20260502204931 50 271 1.7 1.7 0.00 0.00 0.00 43 995.4
20260502204427 51 243 1.7 1.7 0.00 0.00 0.00 44 995.3
20260502203926 52 5 0.0 0.0 0.00 0.00 0.00 39 995.5
20260502203423 52 350 0.0 0.0 0.00 0.00 0.00 42 995.4
20260502202918 51 312 0.0 0.9 0.00 0.00 0.00 44 995.3
20260502202416 50 335 0.9 0.9 0.00 0.00 0.00 44 995.3
20260502201914 51 283 0.9 1.7 0.00 0.00 0.00 41 995.5
20260502201409 51 344 0.0 0.9 0.00 0.00 0.00 45 995.6
20260502200906 51 28 0.9 0.9 0.00 0.00 0.00 42 995.6
20260502200401 50 298 0.0 0.0 0.00 0.00 0.00 45 995.9
20260502195900 50 357 0.9 0.9 0.00 0.00 0.00 45 995.9
20260502195356 50 255 0.9 1.7 0.00 0.00 0.00 45 995.7
20260502194853 50 330 0.0 0.0 0.00 0.00 0.00 46 995.8
20260502194350 50 258 0.9 1.7 0.00 0.00 0.00 43 995.9
20260502193846 50 350 0.9 0.9 0.00 0.00 0.00 45 995.8
20260502193343 50 250 1.7 1.7 0.00 0.00 0.00 47 995.9
20260502192838 51 201 0.0 0.9 0.00 0.00 0.00 41 995.8
20260502192336 51 347 0.9 0.9 0.00 0.00 0.00 42 996.1
20260502191833 51 280 0.9 0.9 0.00 0.00 0.00 46 995.9
20260502191331 50 334 0.9 0.9 0.00 0.00 0.00 45 996.1
20260502190828 50 357 0.0 0.0 0.00 0.00 0.00 50 996.1
20260502190325 50 19 0.0 0.9 0.00 0.00 0.00 50 996.4
20260502185820 49 359 0.0 0.0 0.00 0.00 0.00 53 996.2
20260502185316 49 353 0.0 0.0 0.00 0.00 0.00 51 996.1
20260502184814 49 9 0.0 0.9 0.00 0.00 0.00 48 996.3
20260502184309 50 27 0.0 0.9 0.00 0.00 0.00 50 996.3
20260502183806 50 275 0.9 0.9 0.00 0.00 0.00 47 996.4
20260502183302 50 15 0.0 0.9 0.00 0.00 0.00 49 996.5
20260502182757 50 212 0.0 0.9 0.00 0.00 0.00 46 996.4
20260502182253 51 349 0.9 0.9 0.00 0.00 0.00 48 996.5
20260502181750 51 340 0.0 0.9 0.00 0.00 0.00 49 996.4
20260502181249 50 324 0.0 0.9 0.00 0.00 0.00 51 996.5
20260502180746 50 7 0.9 0.9 0.00 0.00 0.00 51 996.6
20260502180244 50 273 1.7 1.7 0.00 0.00 0.00 48 996.8
20260502170208 46 1 0.0 0.0 0.00 0.00 0.00 59 996.9
20260502164154 48 5 0.0 0.0 0.00 0.00 0.00 56 996.9
20260502163650 48 348 0.0 0.9 0.00 0.00 0.00 54 997.1
20260502163147 48 20 0.0 0.0 0.00 0.00 0.00 51 997.0
20260502162644 48 18 0.0 0.0 0.00 0.00 0.00 53 997.0
20260502162141 48 37 1.7 1.7 0.00 0.00 0.00 54 997.1
20260502161638 48 76 0.9 0.9 0.00 0.00 0.00 54 997.1
20260502161135 48 263 0.0 0.9 0.00 0.00 0.00 55 997.2
20260502160633 47 330 0.0 0.9 0.00 0.00 0.00 59 997.0
20260502160131 46 215 0.0 0.0 0.00 0.00 0.00 55 997.4
20260502152045 47 50 0.9 0.9 0.00 0.00 0.00 60 997.1
20260502151542 48 16 0.9 0.9 0.00 0.00 0.00 55 997.1
20260502151040 47 308 1.7 1.7 0.00 0.00 0.00 63 996.9
20260502150537 46 31 1.7 1.7 0.00 0.00 0.00 60 997.0
20260502130422 41 346 0.0 0.0 0.00 0.00 0.00 81 996.4
20260502123405 40 313 0.0 0.0 0.00 0.00 0.00 84 996.1
20260502122902 40 272 0.9 0.9 0.00 0.00 0.00 82 996.3
20260502122358 41 279 0.9 0.9 0.00 0.00 0.00 81 996.3
20260502121856 41 285 0.9 0.9 0.00 0.00 0.00 81 996.2
20260502121353 41 293 0.0 0.9 0.00 0.00 0.00 81 996.4
20260502120851 41 37 0.0 0.0 0.00 0.00 0.00 81 996.2
20260502120346 41 63 0.0 0.0 0.00 0.00 0.00 81 996.0
20260502115844 40 7 0.0 0.9 0.00 0.00 0.00 80 996.1
20260502115341 40 18 0.0 0.0 0.00 0.00 0.00 83 996.1
20260502114837 40 1 0.0 0.0 0.00 0.00 0.00 83 996.0
20260502114334 40 44 0.0 0.0 0.00 0.00 0.00 83 996.0
20260502113831 40 33 0.9 0.9 0.00 0.00 0.00 84 995.9
20260502113329 39 28 0.0 0.0 0.00 0.00 0.00 86 995.9
20260502112827 39 2 0.0 0.0 0.00 0.00 0.00 86 995.9
20260502112324 39 2 0.0 0.0 0.00 0.00 0.00 86 995.8
20260502111821 39 9 0.0 0.0 0.00 0.00 0.00 86 995.8
20260502111319 39 13 0.0 0.0 0.00 0.00 0.00 86 995.7
20260502110817 39 24 0.0 0.0 0.00 0.00 0.00 87 995.8
20260502110314 39 1 0.0 0.0 0.00 0.00 0.00 88 995.6
20260502105812 39 358 0.0 0.0 0.00 0.00 0.00 89 995.8
20260502105308 39 358 0.0 0.0 0.00 0.00 0.00 89 995.9
20260502104806 39 358 0.0 0.0 0.00 0.00 0.00 89 995.6
20260502104303 39 342 0.0 0.0 0.00 0.00 0.00 90 995.7
20260502103800 39 312 0.0 0.0 0.00 0.00 0.00 92 995.5
20260502103257 39 337 0.0 0.0 0.00 0.00 0.00 93 995.6
20260502102755 39 332 0.0 0.0 0.00 0.00 0.00 93 995.5
20260502102251 39 333 0.0 0.0 0.00 0.00 0.00 93 995.6
20260502101749 39 342 0.0 0.0 0.00 0.00 0.00 93 995.5
20260502101247 39 342 0.0 0.0 0.00 0.00 0.00 92 995.7
20260502100745 39 341 0.0 0.0 0.00 0.00 0.00 92 995.6
20260502100243 39 342 0.0 0.0 0.00 0.00 0.00 92 995.4
20260502091217 39 48 0.0 0.0 0.00 0.00 0.00 91 995.3
20260502090715 39 31 0.9 0.9 0.00 0.00 0.00 91 995.6
20260502090211 39 33 0.9 0.9 0.00 0.00 0.00 91 995.3
20260502071113 39 249 0.9 1.7 0.00 0.00 0.00 92 994.5
20260502070611 39 261 0.0 0.9 0.00 0.00 0.00 95 994.6
20260502070109 39 273 0.9 0.9 0.00 0.00 0.00 96 994.5
20260502065607 39 243 0.9 0.9 0.00 0.00 0.00 97 994.6
20260502065104 39 8 0.0 0.0 0.00 0.00 0.00 97 994.6
20260502064603 39 14 0.0 0.0 0.00 0.00 0.00 97 994.4
20260502064059 39 15 0.0 0.0 0.00 0.00 0.00 97 994.7
20260502063557 39 15 0.0 0.0 0.00 0.00 0.00 97 994.9
20260502063055 39 15 0.0 0.0 0.00 0.00 0.00 96 994.7
20260502062551 39 19 0.0 0.0 0.00 0.00 0.00 96 994.7
20260502062049 39 18 0.0 0.0 0.00 0.00 0.00 96 994.6
20260502061547 39 19 0.0 0.0 0.00 0.00 0.00 96 994.8
20260502061044 39 19 0.0 0.0 0.00 0.00 0.00 96 994.9
20260502060539 39 12 0.0 0.0 0.00 0.00 0.00 96 994.8
20260502060036 39 13 0.0 0.0 0.00 0.00 0.00 96 994.7
20260502055534 39 13 0.0 0.0 0.00 0.00 0.00 96 994.8
20260502055032 39 17 0.0 0.0 0.00 0.00 0.00 96 994.9
20260502054531 40 358 0.0 0.0 0.00 0.00 0.00 95 995.0
20260502054027 40 358 0.0 0.0 0.00 0.00 0.00 96 995.0
20260502053524 40 8 0.0 0.0 0.00 0.00 0.00 95 995.0
20260502053022 40 8 0.0 0.0 0.00 0.00 0.00 95 994.8
20260502052520 40 8 0.0 0.0 0.00 0.00 0.00 95 995.0
20260502052018 40 8 0.0 0.0 0.00 0.00 0.00 95 995.0
20260502051516 40 8 0.0 0.0 0.00 0.00 0.00 95 995.1
20260502051013 40 9 0.0 0.0 0.00 0.00 0.00 95 995.1
20260502050509 40 8 0.0 0.0 0.00 0.00 0.00 94 995.2
20260502050007 40 10 0.0 0.0 0.00 0.00 0.00 94 995.2
20260502045503 40 10 0.0 0.0 0.00 0.00 0.00 93 995.2
20260502045001 41 6 0.0 0.0 0.00 0.00 0.00 93 995.1
20260502044456 41 357 0.0 0.0 0.00 0.00 0.00 92 995.1
20260502043953 42 357 0.0 0.0 0.00 0.00 0.00 92 995.3
20260502043451 42 357 0.0 0.0 0.00 0.00 0.00 93 995.2
20260502042950 42 355 0.0 0.0 0.00 0.00 0.00 93 995.2
20260502042447 42 336 0.0 0.0 0.00 0.00 0.00 93 995.3
20260502041945 42 359 0.0 0.0 0.00 0.00 0.00 93 995.2
20260502041442 42 351 0.0 0.0 0.00 0.00 0.00 92 995.2
20260502040939 42 28 0.0 0.0 0.00 0.00 0.00 93 995.3
20260502040435 42 353 0.0 0.0 0.00 0.00 0.00 92 995.2
20260502035932 42 354 0.0 0.0 0.00 0.59 0.59 92 995.2
20260502035428 42 340 0.0 0.0 0.00 0.59 0.59 92 995.1
20260502034926 42 119 0.0 0.0 0.00 0.59 0.59 93 995.0
20260502034425 42 164 0.0 0.0 0.00 0.59 0.59 94 995.0
20260502033923 42 323 0.0 0.0 0.00 0.59 0.59 95 994.9
20260502033420 42 317 0.0 0.0 0.00 0.59 0.59 95 994.9
20260502032916 42 335 0.0 0.0 0.00 0.59 0.59 95 994.9
20260502032413 42 327 0.0 0.0 0.00 0.59 0.59 95 995.0
20260502031910 42 345 0.0 0.0 0.00 0.59 0.59 95 994.9
20260502031409 42 301 0.0 0.0 0.00 0.59 0.59 95 994.8
20260502030907 41 336 0.0 0.0 0.00 0.59 0.59 95 994.7
20260502030404 41 340 0.0 0.0 0.00 0.59 0.59 95 995.0
20260502025902 41 340 0.0 0.0 0.00 0.59 0.59 95 994.7
20260502025359 41 340 0.0 0.0 0.00 0.59 0.59 95 994.7
20260502024857 41 340 0.0 0.0 0.00 0.59 0.59 95 994.7
20260502024354 41 340 0.0 0.0 0.00 0.59 0.59 95 994.9
20260502023852 41 339 0.0 0.0 0.00 0.59 0.59 95 994.7
20260502023350 41 340 0.0 0.0 0.00 0.59 0.59 95 994.6
20260502022847 41 339 0.0 0.0 0.00 0.59 0.59 95 994.7
20260502022343 41 344 0.0 0.0 0.00 0.59 0.59 94 994.6
20260502021840 41 346 0.0 0.0 0.00 0.59 0.59 94 994.8
20260502021337 41 340 0.0 0.0 0.00 0.59 0.59 94 994.8
20260502020835 41 340 0.0 0.0 0.00 0.59 0.59 94 994.7
20260502020332 41 342 0.0 0.0 0.00 0.59 0.59 94 994.5
20260502015829 41 331 0.0 0.0 0.00 0.59 0.59 94 994.6
20260502015326 41 355 0.0 0.0 0.00 0.59 0.59 94 994.5
20260502014824 41 335 0.0 0.0 0.00 0.59 0.59 93 994.4
20260502014321 41 43 0.0 0.0 0.00 0.59 0.59 93 994.5
20260502013816 41 46 0.0 0.0 0.00 0.59 0.59 93 994.2
20260502013313 41 2 0.0 0.0 0.00 0.59 0.59 93 994.3
20260502012809 41 3 0.0 0.0 0.00 0.59 0.59 93 994.3
20260502012307 41 351 0.0 0.0 0.00 0.59 0.59 93 994.3
20260502011804 41 345 0.0 0.0 0.00 0.59 0.59 93 994.2
20260502011300 41 269 0.0 0.9 0.00 0.59 0.59 93 994.2